Location: Broekland
(52.3610°N, 6.2005°E)
Time: 10:07:20
(UTC+00:00)

Cosmos 2082 Rocket - Pass Details

Date: 19 May 2025
Orbit: 831 x 853 km, 71.0° (Epoch: 23 June)

Event Time Altitude Azimuth Distance (km) Brightness Sun altitude
Exits shadow 21:41:41 17° 179° (S) 2,004 3.6 -13.8°
Maximum altitude 21:45:48 48° 111° (ESE) 1,087 2.5 -14.1°
Drops below altitude 10° 21:51:10 10° 39° (NE) 2,458 5.0 -14.4°
Sets 21:53:41 0° 34° (NE) 3,399 5.8 -14.6°
